This is the latest recevied weather packets stored in our database for station/object KC5TIL. If no packets are shown the sender has not sent any weather packets the latest 10 day(s).
| Time | Temp. | Humidity | Pressure | Rain* | Wind** | Luminosity | Snow |
|---|---|---|---|---|---|---|---|
| 1777947709 | 24.44° C | 71% | 1007 hPa | 0 mm | - | 0 W/m² | - |
| 1777947405 | 24.44° C | 71% | 1006.9 hPa | 0 mm | - | 0 W/m² | - |
| 1777947102 | 24.44° C | 71% | 1007.1 hPa | 0 mm | - | 0 W/m² | - |
| 1777946798 | 24.44° C | 71% | 1006.8 hPa | 0 mm | - | 0 W/m² | - |
| 1777946494 | 24.44° C | 71% | 1007 hPa | 0 mm | - | 0 W/m² | - |
| 1777946192 | 24.44° C | 71% | 1006.7 hPa | 0 mm | - | 0 W/m² | - |
| 1777945888 | 24.44° C | 71% | 1006.8 hPa | 0 mm | - | 0 W/m² | - |
| 1777945585 | 24.44° C | 70% | 1006.7 hPa | 0 mm | - | 0 W/m² | - |
| 1777945282 | 24.44° C | 70% | 1006.6 hPa | 0 mm | - | 0 W/m² | - |
| 1777944979 | 24.44° C | 70% | 1006.7 hPa | 0 mm | - | 0 W/m² | - |
| 1777944677 | 24.44° C | 70% | 1006.9 hPa | 0 mm | - | 0 W/m² | - |
| 1777944375 | 24.44° C | 70% | 1006.7 hPa | 0 mm | - | 0 W/m² | - |
| 1777944071 | 24.44° C | 69% | 1006.6 hPa | 0 mm | - | 0 W/m² | - |
| 1777943767 | 24.44° C | 70% | 1006.7 hPa | 0 mm | - | 0 W/m² | - |
| 1777943464 | 25° C | 69% | 1006.6 hPa | 0 mm | - | 0 W/m² | - |
| 1777943159 | 25° C | 69% | 1006.6 hPa | 0 mm | - | 2 W/m² | - |
| 1777942856 | 25° C | 69% | 1006.6 hPa | 0 mm | - | 5 W/m² | - |
| 1777942552 | 25° C | 69% | 1006.7 hPa | 0 mm | - | 9 W/m² | - |
| 1777942250 | 25° C | 70% | 1006.6 hPa | 0 mm | - | 15 W/m² | - |
| 1777941947 | 25° C | 69% | 1006.5 hPa | 0 mm | - | 16 W/m² | - |
| 1777941643 | 25° C | 69% | 1006.6 hPa | 0 mm | - | 20 W/m² | - |
| 1777941341 | 25° C | 69% | 1006.6 hPa | 0 mm | - | 25 W/m² | - |
| 1777941038 | 25.56° C | 68% | 1006.5 hPa | 0 mm | - | 26 W/m² | - |
| 1777940737 | 25.56° C | 67% | 1006.7 hPa | 0 mm | - | 35 W/m² | - |
| 1777940432 | 25.56° C | 67% | 1006.7 hPa | 0 mm | - | 40 W/m² | - |
* Rain latest hour (hover to see other rain measurements)
** Current wind speed in m/s (hover to see current wind gust speed)